CW0762 Weather Reports


Display with metric or nautical units.
time (UTC)temp
F
wind
direction
speed
MPH
gust
MPH
rain 1hr
in
rain 24hr
in
rain mn
in
humidity
%
barometer
mb
20260906223053 99 58 1.0 6.0 0.00 0.00 0.00 37 1010.8
20260906221555 100 27 0.0 4.0 0.00 0.00 0.00 37 1010.9
20260906220051 100 49 0.0 7.0 0.00 0.00 0.00 37 1010.8
20260906214551 99 40 0.0 4.0 0.00 0.00 0.00 39 1010.9
20260906213056 99 285 0.0 5.0 0.00 0.00 0.00 40 1011.2
20260906211549 98 28 0.0 4.0 0.00 0.00 0.00 40 1011.4
20260906210045 99 333 0.0 4.0 0.00 0.00 0.00 39 1011.7
20260906204601 99 40 0.0 4.0 0.00 0.00 0.00 39 1011.9
20260906203043 99 340 0.0 8.0 0.00 0.00 0.00 40 1012.0
20260906201557 98 9 0.0 3.0 0.00 0.00 0.00 41 1012.2
20260906200041 99 38 2.0 7.0 0.00 0.00 0.00 42 1012.4
20260906194540 98 337 1.0 5.0 0.00 0.00 0.00 42 1012.4
20260906193040 100 57 1.0 4.0 0.00 0.00 0.00 40 1012.6
20260906191538 100 192 0.0 3.0 0.00 0.00 0.00 42 1012.8
20260906190036 99 49 1.0 5.0 0.00 0.00 0.00 41 1012.8
20260906184536 99 44 1.0 7.0 0.00 0.00 0.00 42 1013.0
20260906183037 99 37 1.0 7.0 0.00 0.00 0.00 43 1013.3
20260906181535 99 66 0.0 7.0 0.00 0.00 0.00 44 1013.4
20260906180039 99 18 0.0 2.0 0.00 0.00 0.00 45 1013.5
20260906174529 97 51 1.0 5.0 0.00 0.00 0.00 47 1013.9
20260906173028 97 56 1.0 6.0 0.00 0.00 0.00 48 1014.2
20260906171526 97 73 1.0 4.0 0.00 0.00 0.00 49 1014.3
20260906170024 96 355 0.0 2.0 0.00 0.00 0.00 50 1014.4
20260906164521 95 53 0.0 4.0 0.00 0.00 0.00 53 1014.7
20260906163018 94 20 0.0 5.0 0.00 0.00 0.00 53 1014.7
20260906161520 93 46 0.0 5.0 0.00 0.00 0.00 56 1014.7
20260906160010 92 14 0.0 2.0 0.00 0.00 0.00 58 1014.7
20260906154507 90 332 0.0 4.0 0.00 0.00 0.00 60 1014.7
20260906153003 89 345 0.0 2.0 0.00 0.00 0.00 63 1014.5
20260906151558 87 338 0.0 3.0 0.00 0.00 0.00 67 1014.3
20260906150104 86 331 0.0 2.0 0.00 0.00 0.00 70 1014.2
20260906144554 84 337 0.0 2.0 0.00 0.00 0.00 73 1014.2
20260906143104 83 54 0.0 1.0 0.00 0.00 0.00 78 1014.1
20260906141600 81 54 0.0 2.0 0.00 0.00 0.00 81 1014.3
20260906140058 80 55 0.0 2.0 0.00 0.00 0.00 83 1014.3
20260906134551 79 56 0.0 0.0 0.00 0.00 0.00 85 1014.3
20260906133050 78 56 0.0 1.0 0.00 0.00 0.00 86 1014.3
20260906131555 77 56 0.0 1.0 0.00 0.00 0.00 87 1014.3
20260906130055 77 56 0.0 0.0 0.00 0.00 0.00 85 1014.1
20260906124547 77 56 0.0 0.0 0.00 0.00 0.00 84 1014.0
20260906123047 77 56 0.0 0.0 0.00 0.00 0.00 84 1013.9
20260906121544 77 56 0.0 0.0 0.00 0.00 0.00 84 1013.8
20260906120041 77 56 0.0 0.0 0.00 0.00 0.00 82 1013.7
20260906114547 78 56 0.0 0.0 0.00 0.00 0.00 82 1013.5
20260906113038 78 56 0.0 0.0 0.00 0.00 0.00 81 1013.4
20260906111546 78 56 0.0 0.0 0.00 0.00 0.00 80 1013.3
20260906110034 79 56 0.0 0.0 0.00 0.00 0.00 80 1013.3
20260906104541 79 56 0.0 0.0 0.00 0.00 0.00 78 1013.0
20260906103044 80 56 0.0 0.0 0.00 0.00 0.00 77 1012.9
20260906101534 80 56 0.0 0.0 0.00 0.00 0.00 76 1013.0
20260906100029 81 56 0.0 0.0 0.00 0.00 0.00 76 1012.9
20260906094532 81 56 0.0 0.0 0.00 0.00 0.00 75 1012.6
20260906093035 81 56 0.0 0.0 0.00 0.00 0.00 75 1012.5
20260906091531 81 56 0.0 1.0 0.00 0.00 0.00 74 1012.5
20260906090022 82 55 0.0 2.0 0.00 0.00 0.00 75 1012.4
20260906084521 82 55 0.0 3.0 0.00 0.00 0.00 75 1012.3
20260906083019 82 55 0.0 1.0 0.00 0.00 0.00 74 1012.3
20260906081519 82 55 0.0 2.0 0.00 0.00 0.00 74 1012.2
20260906080018 83 55 0.0 1.0 0.00 0.00 0.00 72 1012.3
20260906074515 83 55 0.0 1.0 0.00 0.00 0.00 71 1012.3
20260906073012 83 55 0.0 1.0 0.00 0.00 0.00 70 1012.5
20260906071510 83 55 0.0 1.0 0.00 0.00 0.00 70 1012.7
20260906070019 84 55 0.0 1.0 0.00 0.00 0.00 69 1012.7
20260906064508 84 55 0.0 1.0 0.00 0.00 0.00 68 1012.8
20260906063007 84 55 0.0 2.0 0.00 0.00 0.00 67 1012.6
20260906061510 84 56 0.0 3.0 0.00 0.00 0.00 67 1012.6
20260906060005 85 52 0.0 2.0 0.00 0.00 0.00 66 1012.7
20260906054502 85 52 0.0 1.0 0.00 0.00 0.00 65 1012.7
20260906053003 85 52 0.0 2.0 0.00 0.00 0.00 64 1012.7
20260906051559 86 53 0.0 3.0 0.00 0.00 0.00 64 1012.8
20260906050104 86 53 0.0 1.0 0.00 0.00 0.00 63 1012.9
20260906044555 86 51 0.0 3.0 0.00 0.00 0.00 62 1012.8
20260906043055 87 53 1.0 3.0 0.00 0.00 0.00 62 1012.7
20260906041555 87 46 1.0 4.0 0.00 0.00 0.00 61 1012.7
20260906034555 87 34 0.0 0.0 0.00 0.00 0.00 59 1012.7
20260906033059 88 34 0.0 2.0 0.00 0.00 0.00 58 1012.6
20260906031610 88 33 0.0 4.0 0.00 0.00 0.00 58 1012.7
20260906030054 88 62 1.0 4.0 0.00 0.00 0.00 57 1012.8
20260906024601 88 59 1.0 8.0 0.00 0.00 0.00 56 1012.6
20260906023059 89 61 2.0 4.0 0.00 0.00 0.00 55 1012.3
20260906021552 90 61 1.0 3.0 0.00 0.00 0.00 55 1012.0
20260906020051 91 52 1.0 4.0 0.00 0.00 0.00 54 1011.9
20260906014554 92 60 1.0 7.0 0.00 0.00 0.00 51 1011.8
20260906013051 93 5 2.0 7.0 0.00 0.00 0.00 48 1011.3
20260906011551 94 62 0.0 1.0 0.00 0.00 0.00 44 1010.8
20260906010052 95 62 0.0 2.0 0.00 0.00 0.00 42 1010.7
20260906004549 95 63 1.0 5.0 0.00 0.00 0.00 41 1010.7
20260906003049 96 47 1.0 5.0 0.00 0.00 0.00 40 1010.7
20260906001548 97 17 0.0 3.0 0.00 0.00 0.00 40 1010.7
20260906000058 97 12 0.0 4.0 0.00 0.00 0.00 40 1010.6
20260905234553 98 355 0.0 1.0 0.00 0.00 0.00 39 1010.5
20260905233051 98 30 0.0 3.0 0.00 0.00 0.00 38 1010.4
20260905231547 99 327 0.0 3.0 0.00 0.00 0.00 38 1010.5
20260905230046 99 316 0.0 3.0 0.00 0.00 0.00 38 1010.4
20260905224546 100 126 0.0 5.0 0.00 0.00 0.00 37 1010.4